Tracking 19563 objects as of 20-Mar-2019
HD Live streaming from Space Station
objects crossing your sky now

OPS 4078 (DMSP 4B F2)

Track OPS 4078 (DMSP 4B F2) now!
10-day predictions
OPS 4078 (DMSP 4B F2) is classified as:


NORAD ID: 3510
Int'l Code: 1968-092A
Perigee: 786.8 km
Apogee: 829.9 km
Inclination: 98.3 °
Period: 100.9 minutes
Semi major axis: 7179 km
RCS: 0.6312 m2 (medium)
Launch date: October 23, 1968
Source: United States (US)
Launch site: AIR FORCE WESTERN TEST RANGE (AFWTR)
aabbcc
Your satellite tracking list
Your tracking list is empty




NASA's NSSDC Master Catalog

Two Line Element Set (TLE):
1  3510U 68092A   19078.54959198 +.00000006 +00000-0 +18949-4 0  9990
2  3510 098.2644 265.3584 0029972 192.0006 168.0465 14.27163746619652
Source of the keplerian elements: AFSPC